Location: Long Barn
(38.0930°N, 120.1344°W)
Time: 22:03:44
(UTC+00:00)

Tiangong - Visible Passes

Search period start: 16 January 2026 00:00
Search period end: 26 January 2026 00:00
Orbit: 378 x 394 km, 41.5° (Epoch: 16 January)

Date Brightness Start Highest point End Pass type
(mag) Time Alt. Az. Time Alt. Az. Time Alt. Az.
17 Jan -0.5 13:48:56 14° SSW 13:51:14 32° SSE 13:54:09 10° E visible
18 Jan 0.8 12:53:08 16° ESE 12:53:08 16° ESE 12:54:27 10° E visible
18 Jan -2.2 14:25:32 10° WSW 14:28:43 88° NNW 14:31:56 10° ENE visible
19 Jan -1.7 13:29:23 57° SSE 13:29:27 58° SSE 13:32:36 10° ENE visible
20 Jan -2.0 14:05:26 26° W 14:07:00 60° NNW 14:10:10 10° ENE visible
21 Jan -0.2 13:09:05 29° ENE 13:09:05 29° ENE 13:10:49 10° ENE visible
21 Jan -1.5 14:41:37 10° WNW 14:44:40 42° N 14:47:45 10° ENE visible
22 Jan -1.7 13:44:51 44° NNW 13:45:12 47° N 13:48:18 10° ENE visible
23 Jan 1.0 12:48:19 14° ENE 12:48:19 14° ENE 12:48:52 10° ENE visible
23 Jan -1.5 14:20:32 16° WNW 14:22:51 44° N 14:25:56 10° E visible
24 Jan -1.0 13:23:56 37° NNE 13:23:56 37° NNE 13:26:23 10° ENE visible
25 Jan -1.7 13:59:30 28° NW 14:00:53 52° N 14:04:01 10° E visible
